[[{"header":{"parameterUnit":"m.s-1","parameterCategory":1,"la1":30.2991,"la2":30.254,"lo1":-89.0895,"lo2":-89.0444,"dy":0.0017,"dx":0.0017,"nx":28,"ny":28,"refTime":"2024-05-21T03:00:00:Z","depth":0,"parameterNumber":2,"parameterNumberName":"U-component_of_WINDS"},"data":[0,0,0,0,0,0,0,0,0,0,0,0,0,0,0,0,0,0,0,0,0,0,0,0,0,0,0,0,0,0,0,0,0,0,0,0,0,0,0,0,0,0,0,0,0,0,0,0,0,0,0,0,0,0,0,0,0,0,-1.9836,-1.9836,0,-1.9823,-1.9823,-1.9823,-1.9775,-1.9774,-1.9773,-1.9772,-1.9759,-1.976,-1.9761,0,0,0,0,0,0,0,0,0,0,0,0,0,-1.9822,-1.9823,-1.9836,-1.9836,-1.9836,-1.9823,-1.9823,-1.9823,-1.9775,-1.9774,-1.9772,-1.9771,-1.9759,-1.976,-1.9761,0,0,0,0,0,0,0,0,0,0,0,0,0,-1.9821,-1.9823,-1.9837,-1.9811,-1.9808,-1.9823,-1.9823,-1.9823,-1.9775,-1.9774,-1.9772,-1.9771,-1.9759,-1.976,-1.9761,-1.98,0,0,-1.9764,-1.9764,0,0,0,0,0,0,0,0,-1.9821,-1.9821,-1.9815,-1.9813,-1.981,-1.9799,-1.9813,-1.9815,-1.9776,-1.9788,-1.9772,-1.977,-1.9774,-1.9774,-1.9775,-1.9799,-1.9799,-1.9764,-1.9765,-1.9765,-1.9765,0,0,0,0,0,0,0,-1.9821,-1.9822,-1.9831,-1.9815,-1.9812,-1.98,-1.9798,-1.9813,-1.979,-1.9787,-1.9783,-1.9782,-1.9772,-1.9774,-1.9774,-1.9798,-1.9764,-1.9765,-1.9766,-1.9766,-1.9854,-1.9856,0,0,0,0,0,0,-1.9825,-1.9822,-1.9832,-1.9831,-1.9811,-1.9802,-1.98,-1.9804,-1.979,-1.9786,-1.9784,-1.978,-1.9773,-1.9773,-1.9773,-1.9818,-1.9765,-1.9766,-1.9767,-1.9853,-1.9855,-1.9857,0,0,0,0,0,0,-1.9825,-1.9826,-1.9832,-1.9825,-1.9825,-1.9804,-1.9809,-1.9805,-1.9806,-1.9788,-1.9783,-1.9789,-1.9772,-1.9772,-1.9793,-1.9817,-1.9767,-1.9768,-1.9851,-1.9853,-1.9856,-1.9907,0,0,0,0,0,0,-1.9824,-1.9826,-1.984,-1.9826,-1.9826,-1.9852,-1.9811,-1.9806,-1.9808,-1.9803,-1.9792,-1.9788,-1.977,-1.9792,-1.9795,-1.9817,-1.9768,-1.9848,-1.9852,-1.9855,-1.9903,-1.9911,-1.9918,0,0,0,0,0,-1.9824,-1.9856,-1.9841,-1.9843,-1.9843,-1.9854,-1.9853,-1.9832,-1.981,-1.9824,-1.9812,-1.9789,-1.9814,-1.9795,-1.9797,-1.982,-1.9847,-1.9851,-1.9855,-1.99,-1.991,-1.9918,0,0,0,0,0,0,-1.9874,-1.9853,-1.9837,-1.9865,-1.9861,-1.9845,-1.9863,-1.9843,-1.9845,-1.9841,-1.9814,-1.9812,-1.9837,-1.9831,-1.981,-1.9857,-1.9826,-1.9831,-1.986,-1.9869,-1.9877,-1.9877,-1.9769,0,0,0,0,0,-1.9888,-1.9898,-1.988,-1.9906,-1.9905,-1.9884,-1.9888,-1.9872,-1.9867,-1.9865,-1.9855,-1.9851,-1.9858,-1.9864,-1.9869,-1.9902,-1.9899,-1.992,-1.9927,-1.9933,-1.9937,-1.9954,-1.9963,-1.9869,-1.9869,-1.9869,0,0,-1.9918,-1.9908,-1.9915,-1.9916,-1.9911,-1.9922,-1.9883,-1.9897,-1.9905,-1.9867,-1.9886,-1.9879,-1.9873,-1.9901,-1.9913,-1.9897,-1.9963,-1.9938,-1.9943,-1.9944,-1.9959,-1.9968,-1.9976,-1.9872,-1.9871,-1.9871,0,0,-1.9977,-1.997,-1.9991,-1.9987,-1.998,-1.9966,-1.9972,-1.9959,-1.9952,-1.9971,-1.9943,-1.9953,-1.9965,-1.9963,-1.9963,-2.0022,-2.0,-2.0024,-2.0062,-2.0079,-2.0087,-2.0093,-2.0114,-2.0122,-2.0028,-2.0029,-2.0029,0,-2.0014,-2.0029,-2.0005,-2.002,-2.0021,-1.9987,-2.0009,-2.0006,-2.0002,-2.0004,-1.9986,-2.0001,-1.9995,-2.0021,-2.0036,-2.0037,-2.0042,-2.0025,-2.0088,-2.0094,-2.0099,-2.0119,-2.0127,-2.0032,-2.0031,-2.0031,-2.0031,0,-2.0076,-2.0087,-2.0105,-2.0101,-2.0104,-2.0122,-2.0101,-2.0107,-2.0091,-2.0079,-2.0099,-2.0091,-2.0094,-2.0099,-2.0083,-2.0123,-2.0114,-2.0092,-2.0061,-2.0112,-2.013,-2.0137,-2.0036,-2.0035,-2.0034,-2.0033,0,0,-2.0166,-2.0148,-2.0155,-2.0153,-2.0142,-2.0151,-2.0168,-2.017,-2.0176,-2.0174,-2.0188,-2.02,-2.018,-2.018,-2.0164,-2.0179,-2.0226,-2.0156,-2.0155,-2.0169,-2.0269,-2.0285,-2.0294,-2.0212,-2.0213,-2.0214,-2.027,0,-2.0222,-2.0249,-2.0228,-2.0259,-2.0269,-2.0237,-2.0252,-2.0248,-2.0237,-2.0245,-2.0233,-2.0242,-2.0215,-2.0215,-2.0229,-2.0217,-2.0246,-2.0213,-2.0224,-2.0225,-2.0226,-2.0304,-2.032,-2.0373,-2.0277,-2.0278,-2.0279,0,-2.0291,-2.0291,-2.0323,-2.0311,-2.0314,-2.0328,-2.0329,-2.0336,-2.0331,-2.0322,-2.0323,-2.0302,-2.0319,-2.0288,-2.031,-2.0288,-2.0292,-2.0287,-2.0289,-2.0289,-2.0255,-2.0305,-2.039,-2.0398,-2.0289,-2.0289,-2.0288,0,-2.0353,-2.0362,-2.0382,-2.0381,-2.0367,-2.0378,-2.0372,-2.0365,-2.0368,-2.0369,-2.0371,-2.0374,-2.0376,-2.0379,-2.036,-2.034,-2.0385,-2.0353,-2.0379,-2.0379,-2.0389,-2.0389,-2.0475,-2.0392,-2.0392,-2.0392,-2.0392,0,-2.0417,-2.0438,-2.041,-2.0422,-2.0445,-2.042,-2.0444,-2.0435,-2.0429,-2.044,-2.0413,-2.0424,-2.0399,-2.0407,-2.0393,-2.0413,-2.0414,-2.0408,-2.0404,-2.041,-2.0411,-2.0412,-2.0407,-2.0394,-2.0394,-2.0393,-2.0393,0,-2.049,-2.0472,-2.0492,-2.0477,-2.0474,-2.0491,-2.0479,-2.049,-2.0478,-2.0492,-2.0494,-2.0475,-2.0483,-2.0465,-2.0471,-2.0461,-2.049,-2.048,-2.0492,-2.0489,-2.0515,-2.0513,-2.0605,-2.0616,-2.0527,-2.0527,-2.0528,0,-2.0533,-2.0548,-2.0535,-2.0539,-2.0536,-2.0544,-2.0547,-2.0524,-2.0528,-2.0523,-2.0535,-2.0541,-2.0544,-2.0559,-2.0546,-2.0551,-2.0541,-2.0573,-2.0541,-2.0547,-2.0541,-2.054,-2.0542,-2.0579,-2.058,-2.0581,-2.0582,0,-2.061,-2.06,-2.0604,-2.0606,-2.061,-2.061,-2.0609,-2.0615,-2.059,-2.0596,-2.0604,-2.0607,-2.0613,-2.0619,-2.062,-2.0616,-2.0595,-2.0592,-2.0598,-2.0605,-2.061,-2.0607,-2.0509,-2.059,-2.0589,-2.0588,-2.0588,-2.0588,-2.0668,-2.068,-2.0673,-2.0679,-2.0675,-2.0675,-2.0684,-2.0673,-2.0679,-2.0681,-2.0668,-2.0679,-2.0673,-2.0673,-2.067,-2.0679,-2.0665,-2.0674,-2.0676,-2.0678,-2.0683,-2.0609,-2.0679,-2.0679,-2.0679,-2.0679,-2.0678,0,-2.0744,-2.0737,-2.0743,-2.0742,-2.0747,-2.0726,-2.0724,-2.0729,-2.0739,-2.0735,-2.0739,-2.0748,-2.0754,-2.0742,-2.0746,-2.0756,-2.0746,-2.0757,-2.0756,-2.0756,-2.0695,-2.0689,-2.0765,-2.0765,-2.0765,-2.0765,-2.0765,-2.0765,-2.0784,-2.0803,-2.0792,-2.0809,-2.0803,-2.0813,-2.0813,-2.0812,-2.0809,-2.082,-2.0825,-2.0817,-2.081,-2.0813,-2.0818,-2.0814,-2.0817,-2.0832,-2.0825,-2.0768,-2.076,-2.0752,-2.0746,-2.0832,-2.0832,-2.0884,-2.0885,-2.0885]},{"header":{"parameterUnit":"m.s-1","parameterCategory":1,"la1":30.2991,"la2":30.254,"lo1":-89.0895,"lo2":-89.0444,"dy":0.0017,"dx":0.0017,"nx":28,"ny":28,"refTime":"2024-05-21T03:00:00:Z","depth":0,"parameterNumber":3,"parameterNumberName":"V-component_of_WINDS"},"data":[0,0,0,0,0,0,0,0,0,0,0,0,0,0,0,0,0,0,0,0,0,0,0,0,0,0,0,0,0,0,0,0,0,0,0,0,0,0,0,0,0,0,0,0,0,0,0,0,0,0,0,0,0,0,0,0,0,0,3.0196,3.0195,0,3.0188,3.0187,3.0187,3.0137,3.0136,3.0134,3.0133,3.0125,3.0126,3.0127,0,0,0,0,0,0,0,0,0,0,0,0,0,3.0168,3.0168,3.0196,3.0195,3.0195,3.0188,3.0187,3.0187,3.0137,3.0135,3.0134,3.0133,3.0125,3.0126,3.0127,0,0,0,0,0,0,0,0,0,0,0,0,0,3.0172,3.0169,3.0196,3.0169,3.0167,3.0188,3.0187,3.0187,3.0137,3.0135,3.0134,3.0132,3.0125,3.0126,3.0127,3.0173,0,0,3.0132,3.0132,0,0,0,0,0,0,0,0,3.0172,3.0173,3.0173,3.0171,3.0168,3.0161,3.0175,3.0183,3.0138,3.0149,3.0133,3.0131,3.0139,3.0139,3.0141,3.0172,3.0172,3.0132,3.0133,3.0133,3.0134,0,0,0,0,0,0,0,3.0171,3.0173,3.0192,3.0173,3.017,3.0158,3.0157,3.0176,3.0154,3.0147,3.0144,3.0143,3.0137,3.014,3.0141,3.0172,3.0132,3.0133,3.0134,3.0134,3.024,3.0242,0,0,0,0,0,0,3.0175,3.0173,3.0193,3.0192,3.0165,3.016,3.0158,3.0165,3.0154,3.015,3.0145,3.0141,3.0139,3.0139,3.014,3.0193,3.0133,3.0135,3.0135,3.0238,3.0241,3.0243,0,0,0,0,0,0,3.0174,3.0177,3.0193,3.0182,3.0183,3.0162,3.0171,3.0166,3.0169,3.0152,3.0148,3.0152,3.0137,3.0138,3.0165,3.0192,3.0135,3.0136,3.0236,3.0239,3.0242,3.0298,0,0,0,0,0,0,3.0174,3.0177,3.0194,3.0182,3.0183,3.0218,3.0172,3.0167,3.0172,3.0167,3.0158,3.0154,3.0136,3.0163,3.0167,3.0193,3.0138,3.0234,3.0237,3.0241,3.0294,3.0303,3.0311,0,0,0,0,0,3.0173,3.021,3.0195,3.0198,3.0204,3.022,3.022,3.0198,3.0174,3.0191,3.018,3.0155,3.0189,3.0167,3.017,3.0197,3.0232,3.0236,3.0241,3.029,3.0301,3.031,0,0,0,0,0,0,3.0226,3.0208,3.0191,3.0226,3.0225,3.0211,3.0232,3.021,3.0216,3.0211,3.0183,3.0182,3.0213,3.0207,3.0183,3.024,3.0206,3.0211,3.0243,3.0253,3.0261,3.0261,3.0139,0,0,0,0,0,3.0241,3.0255,3.0239,3.0271,3.0272,3.0252,3.0258,3.0241,3.0239,3.0238,3.0228,3.0227,3.0237,3.0245,3.0253,3.0293,3.0291,3.0314,3.0322,3.0329,3.0333,3.0354,3.0364,3.0257,3.0257,3.0257,0,0,3.0274,3.0266,3.0276,3.0282,3.0279,3.0294,3.0252,3.0269,3.028,3.024,3.0265,3.0258,3.0255,3.0289,3.0303,3.0285,3.0363,3.0334,3.034,3.0341,3.036,3.037,3.0379,3.026,3.026,3.0259,0,0,3.0341,3.0336,3.0363,3.0361,3.0357,3.0343,3.035,3.0339,3.0333,3.0358,3.0328,3.0341,3.0359,3.0358,3.036,3.0427,3.0404,3.0431,3.0474,3.0495,3.0503,3.051,3.0534,3.0543,3.0436,3.0436,3.0436,0,3.0382,3.0403,3.0379,3.0399,3.0402,3.0367,3.0393,3.0392,3.0392,3.0395,3.0375,3.0397,3.0393,3.0426,3.0442,3.0445,3.0451,3.0432,3.0504,3.0511,3.0517,3.054,3.0549,3.0439,3.0439,3.0439,3.0438,0,3.0453,3.0469,3.0491,3.0491,3.0497,3.052,3.0499,3.0508,3.0491,3.048,3.0506,3.0499,3.0506,3.0512,3.0496,3.0543,3.0532,3.0509,3.0473,3.0531,3.0552,3.056,3.0444,3.0443,3.0442,3.0441,0,0,3.0553,3.054,3.0548,3.0548,3.0541,3.0552,3.0574,3.0581,3.0589,3.059,3.0607,3.0624,3.0602,3.0604,3.0588,3.0606,3.066,3.058,3.0579,3.0595,3.0711,3.0729,3.0739,3.0644,3.0646,3.0647,3.0712,0,3.0617,3.0653,3.0632,3.0671,3.0685,3.0652,3.0671,3.0669,3.066,3.067,3.066,3.0672,3.0642,3.0643,3.066,3.065,3.0683,3.0645,3.066,3.0661,3.0662,3.075,3.0769,3.083,3.072,3.0721,3.0722,0,3.0696,3.0701,3.0741,3.0732,3.0737,3.0754,3.0759,3.0769,3.0767,3.0758,3.0761,3.074,3.0761,3.0727,3.0755,3.073,3.0735,3.0731,3.0733,3.0733,3.0695,3.0753,3.0849,3.0858,3.0734,3.0733,3.0733,0,3.0765,3.0781,3.0807,3.0808,3.0798,3.0811,3.0807,3.0803,3.0808,3.0812,3.0815,3.0822,3.0826,3.0831,3.0813,3.0789,3.0844,3.0807,3.0837,3.0838,3.085,3.085,3.0948,3.0854,3.0854,3.0854,3.0854,0,3.0838,3.0865,3.0838,3.0854,3.0882,3.0858,3.0887,3.088,3.0877,3.0891,3.0863,3.0877,3.0852,3.0863,3.0849,3.0875,3.0877,3.0871,3.0866,3.0873,3.0874,3.0876,3.0871,3.0856,3.0856,3.0855,3.0855,0,3.0919,3.0902,3.0929,3.0918,3.0915,3.0937,3.0927,3.0942,3.093,3.0949,3.0952,3.0934,3.0947,3.0929,3.0939,3.0929,3.0965,3.0954,3.0966,3.0963,3.0994,3.0991,3.1097,3.111,3.1008,3.1009,3.101,0,3.0967,3.0987,3.0977,3.0985,3.0983,3.0996,3.1001,3.0979,3.0985,3.0984,3.0999,3.1009,3.1016,3.1037,3.1025,3.1033,3.1023,3.1059,3.1024,3.103,3.1023,3.1022,3.1024,3.1067,3.1068,3.1069,3.107,0,3.1055,3.1045,3.1054,3.106,3.1067,3.1071,3.1073,3.1081,3.1057,3.1066,3.1078,3.1084,3.1094,3.1105,3.111,3.1106,3.1084,3.1081,3.1088,3.1095,3.1101,3.1098,3.0986,3.1079,3.1078,3.1077,3.1077,3.1076,3.112,3.1136,3.1132,3.1143,3.1142,3.1144,3.1157,3.1148,3.1158,3.1165,3.1151,3.1167,3.1164,3.1168,3.1167,3.1179,3.1163,3.1174,3.1177,3.118,3.1184,3.1099,3.118,3.118,3.118,3.1179,3.1179,0,3.1206,3.1202,3.1212,3.1215,3.1224,3.1202,3.1203,3.1212,3.1226,3.1225,3.1233,3.1247,3.1257,3.1246,3.1254,3.1266,3.1256,3.1269,3.1268,3.1268,3.1198,3.1191,3.1277,3.1277,3.1277,3.1277,3.1277,3.1277,3.1251,3.1277,3.1267,3.1292,3.1288,3.1303,3.1306,3.1308,3.1307,3.1324,3.1332,3.1325,3.132,3.1328,3.1336,3.1333,3.1337,3.1354,3.1347,3.1282,3.1272,3.1263,3.1256,3.1355,3.1355,3.1415,3.1415,3.1416]}]]